Regional Weather Roundup
Issued by NWS

Home | Current Version | Previous Version | Graphics & Text | Print | Product List | Glossary On
Versions: 1 2 3 4 5 6 7 8 9 10 11 12 13 14 15 16 17 18 19 20 21 22 23 24 25 26 27 28
000
ASUS45 KTFX 232310
RWRMT
MONTANA REGIONAL WEATHER ROUNDUP
NATIONAL WEATHER SERVICE GREAT FALLS MT
400 PM MST THU NOV 23 2017

NOTE: "FAIR" INDICATES FEW OR NO CLOUDS BELOW 12000 FEET WITH NO
SIGNIFICANT WEATHER AND/OR OBSTRUCTIONS TO VISIBILITY.

MTZ001>007-043-240000-
WEST OF THE DIVIDE

CITY           SKY/WX    TMP DP  RH WIND       PRES   REMARKS
KALISPELL      LGT RAIN  53  48  83 S9        29.59F
MISSOULA       LGT RAIN  50  49  96 CALM      29.74F FOG
BUTTE          FAIR      56  31  38 SW13G23   29.82F
MULLAN PASS    CLOUDY    41  38  89 SW23G39   29.68F
ANACONDA         N/A     55  34  44 S23G31    29.77F
DEER LODGE       N/A     57  36  44 S13G21    29.73F
EUREKA           N/A     52  46  82 MISG      29.53F
HAMILTON         N/A     63  37  39 SW10G16   29.72F
LIBBY            N/A     52  48  87 W3        29.55F
PLAINS           N/A     56  46  69 S12       29.68F
RONAN            N/A     52  48  86 CALM      29.76F
$$

MTZ008-052>055-240000-
SOUTHWEST MONTANA

CITY           SKY/WX    TMP DP  RH WIND       PRES   REMARKS
BOZEMAN        FAIR      60  36  40 SW21      29.77F
DILLON         FAIR      60  29  30 SW26G37   29.85F
W YELLOWSTONE  FAIR      45  39  81 SW9G16    30.02S
ENNIS          PTCLDY    54  37  54 S29G37    29.93F
TWIN BRIDGES     N/A     62  29  29 S5        29.86F
$$

MTZ009-010-012-014-046-048-049-054-240000-
EAST SLOPES AND CENTRAL MONTANA

CITY           SKY/WX    TMP DP  RH WIND       PRES   REMARKS
CUT BANK       CLOUDY    52  42  69 SW23      29.51F
GREAT FALLS    FAIR      58  39  49 W32G46    29.58F
MALMSTROM AFB  FAIR      60  40  48 W25G37    29.59F
HELENA         FAIR      66  33  29 SW17G23   29.67F
BOWMANS CRNR   LGT RAIN  47  43  85 SW18      29.63F
CHOTEAU          N/A     54  41  62 SW20G28   29.60F
FAIRFIELD      FAIR      54  40  57 SW23G30   29.60F
POWER          FAIR      55  39  54 SW26G38   29.59F
RAYNESFORD     FAIR      64  33  31 W32G44    29.61F
ULM            FAIR      62  37  39 W24G40    29.61F
$$

MTZ011-013-016-021-045-047-050-051-240000-
NORTH CENTRAL MONTANA

CITY           SKY/WX    TMP DP  RH WIND       PRES   REMARKS
HAVRE          FAIR      63  40  42 W22G31    29.48F
LEWISTOWN      FAIR      63  35  35 W26G37    29.62F
N BAR RANCH    FAIR      64  30  27 W24G30    29.65F
CHINOOK          N/A     66  39  37 SW17G29   29.47S
DENTON         FAIR      63  36  36 W22       29.55F
GEYSER         FAIR      63  33  32 W23G30    29.61F
GRASS RANGE    FAIR      65  32  28 W30G39    29.57F
STANFORD       FAIR      62  31  30 W31G38    29.63F
WINIFRED       FAIR      64  36  35 W20G28    29.56F
$$

MTZ017>020-022>027-061-062-240000-
NORTHEAST MONTANA

CITY           SKY/WX    TMP DP  RH WIND       PRES   REMARKS
GLASGOW        MOCLDY    67  36  31 W15       29.48F
GLENDIVE       FAIR      66  37  34 SW18      29.55
JORDAN           N/A     68  35  29 W12       29.55S
SIDNEY         FAIR      66  37  34 SW17      29.48F
WOLF POINT     FAIR      69  37  30 SW14      29.47F
MALTA          CLEAR     63  37  39 SW12      29.47F
PLENTYWOOD       N/A     63  39  42 W6        29.43S
POPLAR           N/A     68  37  32 SW15G23   29.47S
SCOBEY           N/A     65  36  34 SW22      29.45F
$$

MTZ028>42-056>058-240000-
SOUTHCENTRAL AND SOUTHEAST MONTANA

CITY           SKY/WX    TMP DP  RH WIND       PRES   REMARKS
BAKER          FAIR      65  40  39 SW15      29.63F
BILLINGS       FAIR      67  36  31 SW18G28   29.69F
LIVINGSTON     FAIR      61  37  41 SW44G53   29.73S
MILES CITY     FAIR      68  39  34 W18       29.60F
BIG TIMBER     CLEAR     63  30  29 W24G35    29.76R
FORSYTH          N/A     72  36  26 SW6       29.62F
HARLOWTON      FAIR      62  33  32 W26G33    29.68F
LAUREL           N/A     68  34  28 SW26G33   29.70S
ROUNDUP          N/A     68  33  27 SW14      29.60F
$$

REGIONAL REPORTS...DAKOTAS

CITY           SKY/WX    TMP DP  RH WIND       PRES   REMARKS
WILLISTON      FAIR      63  37  38 SW10      29.46F
MINOT          FAIR      57  40  52 SW14      29.41F
DICKINSON      FAIR      63  36  36 W16       29.55F
BEACH          FAIR      63  36  36 SW14      29.60F
CROSBY         FAIR      57  39  51 SW16      29.39F
TIOGA          FAIR      59  37  44 W20       29.47S
WATFORD CITY   FAIR      61  37  41 SW12      29.48F
BISMARCK       FAIR      64  39  39 SW6       29.54F
GRAND FORKS    FAIR      37  31  78 S14       29.50F WCI  28
FARGO          FAIR      45  31  58 S14       29.57F
RAPID CITY     FAIR      67  32  27 W9        29.72F
$$

REGIONAL REPORTS...WYOMING/IDAHO/WASHINGTON

CITY           SKY/WX    TMP DP  RH WIND       PRES   REMARKS
GILLETTE       FAIR      60  33  36 SW18      29.80F
SHERIDAN       FAIR      65  33  30 N6        29.76F
BUFFALO WY     FAIR      57  30  35 W9        29.83S
CODY           FAIR      62  32  32 W20G32    29.84F
YELLOWSTONE LA   N/A     42  35  76 W13G21    30.08F
IDAHO FALLS    FAIR      58  42  55 SW20      30.01F
SALMON         FAIR      44  41  89 CALM      29.87F
BOISE          CLOUDY    65  45  48 SE10      29.94F
SPOKANE        LGT RAIN  54  52  93 SW26G36   29.66F
$$

REGIONAL REPORTS...ALBERTA

CITY           SKY/WX    TMP DP  RH WIND       PRES   REMARKS
EDMONTON       CLEAR     39  30  70 SW14      29.27F WCI  31
CALGARY        CLOUDY    36  32  87 CALM      29.44R
LETHBRIDGE     MOCLDY    52  41  66 SW25G31   29.40S
MEDICINE HAT   MOCLDY    48  37  66 N18       29.41R
$$

REGIONAL REPORTS...SASKATCHEWAN

CITY           SKY/WX    TMP DP  RH WIND       PRES   REMARKS
SWIFT CURRENT  CLOUDY    43  39  87 NW16      29.39R
REGINA         MOCLDY    45  37  76 W18G26    29.29F
SASKATOON      MOCLDY    30  28  93 W14       29.34R WCI  20
$$




USA.gov is the U.S. government's official web portal to all federal, state and local government web resources and services.